Location: Worth Mountain WMA
(34.9569°N, 81.4819°W)
Time: 19:00:16
(UTC-04:00)

Amateur Radio Satellites - All Passes

Search period start: 24 July 2014 18:30
Search period end: 25 July 2014 18:30
Location: Worth Mountain WMA, 34.9569°N, 81.4819°W

Satellite Date Start Highest point End Downlink Frequencies (MHz)
Time Altitude Azimuth
OPAL 24 Jul 18:30:32 18:34:40 26° 293° (WNW) 18:38:50 ?
Hamsat 24 Jul 18:40:10 18:44:19 76° 77° (ENE) 18:48:30 145.90 MHz
Saudisat 1A 24 Jul 18:50:56 18:55:21 83° 242° (WSW) 18:59:43 436.775 MHz
AO-7 24 Jul 18:51:53 18:56:53 17° 267° (W) 19:01:55 29.400 - 29.500 MHz
STRAND 1 24 Jul 19:07:34 19:10:46 17° 94° (E) 19:13:58 ?
SO-67 24 Jul 19:18:35 19:21:25 24° 73° (ENE) 19:24:16 435.3500 MHz FM
JAS-2 24 Jul 19:59:10 20:06:16 37° 263° (W) 20:13:15 435.800 - 435.900 CW/SSB, 435.910 FM
RS-15 24 Jul 20:38:20 20:42:22 12° 13° (NNE) 20:46:26 29.354 - 29.394 USB, Beacon 29.352 USB
STRAND 1 24 Jul 20:45:17 20:50:10 47° 288° (WNW) 20:55:01 ?
SO-67 24 Jul 20:52:32 20:54:28 14° 266° (W) 20:56:25 435.3500 MHz FM
HO-68 24 Jul 20:58:50 21:05:26 41° 67° (ENE) 21:12:02 435.675 MHz FM
Oscar 11 24 Jul 21:25:32 21:28:00 15° 67° (ENE) 21:30:28 145.825 FM, Beacon 2401.500 USB
MaSat-1 24 Jul 21:58:22 22:00:55 18° 100° (E) 22:03:43 437.345 MHz
UKube-1 24 Jul 22:08:59 22:13:20 73° 258° (WSW) 22:17:43 145.840 MHz, 145.915 MHz
SO-50 24 Jul 22:32:43 22:36:23 22° 51° (NE) 22:40:04 436.795 FM
HO-68 24 Jul 22:46:49 22:53:07 33° 262° (W) 22:59:27 435.675 MHz FM
RS-15 24 Jul 22:49:44 22:59:36 35° 46° (NE) 23:09:41 29.354 - 29.394 USB, Beacon 29.352 USB
Oscar 11 24 Jul 22:59:47 23:03:49 39° 261° (W) 23:07:52 145.825 FM, Beacon 2401.500 USB
FUNcube-1 24 Jul 23:07:40 23:12:05 83° 77° (ENE) 23:16:24 145.950 - 145.970 MHz USB
Lituanica SAT-1 24 Jul 23:31:00 23:32:52 28° 133° (SE) 23:34:44 437.275 MHz beacon
MaSat-1 24 Jul 23:34:28 23:37:53 30° 302° (WNW) 23:41:49 437.345 MHz
SO-50 25 Jul 00:12:36 00:17:05 41° 246° (WSW) 00:21:36 436.795 FM
ISS 25 Jul 00:31:25 00:33:50 19° 129° (SE) 00:36:15 145.800 FM
UOSAT-12 25 Jul 00:59:05 01:03:34 41° 56° (NE) 01:07:58 437.025 FM, 437.400 FM
RS-15 25 Jul 01:01:41 01:12:35 66° 247° (WSW) 01:23:57 29.354 - 29.394 USB, Beacon 29.352 USB
Sapphire 25 Jul 01:03:22 01:06:26 15° 104° (ESE) 01:09:30 437.095 MHz 1200 baud AX-25 AFSK
PCSat 25 Jul 01:35:11 01:40:02 35° 109° (ESE) 01:44:55 145.825 MHz
AO-40 25 Jul 01:38:15 04:36:50 26° 122° (ESE) 05:55:45 Beacon 2401.320
Oscar 19 25 Jul 01:42:37 01:44:12 11° 91° (E) 01:45:46 437.125 CW, 437.150 USB
ISS 25 Jul 02:07:16 02:10:21 34° 323° (NW) 02:13:28 145.800 FM
Oscar 16 25 Jul 02:07:58 02:12:04 24° 96° (E) 02:16:09 437.025 USB, Beacon 2401.1428
JAS-1B 25 Jul 02:17:11 02:19:53 12° 83° (E) 02:22:29 435.800 - 435.900 CW/SSB
ITAMSAT 1 25 Jul 02:21:09 02:23:11 12° 92° (E) 02:25:13 435.822 SSB
AO-Echo 25 Jul 02:33:21 02:36:42 18° 93° (E) 02:39:58 ?
AO-27 25 Jul 02:37:41 02:41:24 20° 94° (E) 02:45:05 436.795 MHz FM
UOSAT-12 25 Jul 02:40:08 02:43:22 19° 251° (WSW) 02:46:35 437.025 FM, 437.400 FM
Uribyol 2 25 Jul 02:40:08 02:44:04 22° 95° (E) 02:47:58 436.500 FM
Sapphire 25 Jul 02:43:59 02:49:18 58° 299° (WNW) 02:54:39 437.095 MHz 1200 baud AX-25 AFSK
Oscar 19 25 Jul 03:18:49 03:23:57 69° 285° (WNW) 03:29:04 437.125 CW, 437.150 USB
PCSat 25 Jul 03:18:51 03:23:27 28° 305° (NW) 03:28:04 145.825 MHz
Oscar 16 25 Jul 03:46:48 03:51:25 35° 290° (WNW) 03:56:03 437.025 USB, Beacon 2401.1428
TMSAT-1 25 Jul 03:52:06 03:56:44 30° 97° (E) 04:01:20 436.925 FM
ITAMSAT 1 25 Jul 03:57:56 04:03:04 64° 286° (WNW) 04:08:09 435.822 SSB
JAS-1B 25 Jul 04:02:34 04:12:05 73° 102° (ESE) 04:20:10 435.800 - 435.900 CW/SSB
OPAL 25 Jul 04:03:23 04:07:57 39° 69° (ENE) 04:12:32 ?
AO-Echo 25 Jul 04:10:50 04:15:39 43° 288° (WNW) 04:20:19 ?
Gurwin Techsat 1B 25 Jul 04:13:03 04:18:22 71° 102° (ESE) 04:23:39 435.225 FM
AO-27 25 Jul 04:16:11 04:21:02 41° 289° (WNW) 04:25:51 436.795 MHz FM
Uribyol 2 25 Jul 04:18:53 04:23:36 37° 289° (WNW) 04:28:18 436.500 FM
Uosat F 25 Jul 04:27:21 04:29:28 13° 92° (E) 04:31:34 435.120 FM
AO-7 25 Jul 05:01:01 05:08:25 34° 98° (E) 05:15:44 29.400 - 29.500 MHz
TMSAT-1 25 Jul 05:32:04 05:36:31 28° 291° (WNW) 05:40:57 436.925 FM
OPAL 25 Jul 05:43:24 05:46:56 19° 263° (W) 05:50:28 ?
JAS-1B 25 Jul 05:54:15 06:01:28 26° 302° (WNW) 06:08:03 435.800 - 435.900 CW/SSB
Gurwin Techsat 1B 25 Jul 05:55:22 05:57:40 13° 297° (WNW) 05:59:59 435.225 FM
Uosat F 25 Jul 06:03:39 06:08:35 60° 286° (WNW) 06:13:29 435.120 FM
KITSAT 1 25 Jul 06:17:04 06:23:04 23° 104° (ESE) 06:29:04 435.175 FM
STRAND 1 25 Jul 06:20:32 06:24:01 19° 66° (ENE) 06:27:30 ?
Hamsat 25 Jul 06:30:13 06:33:05 17° 94° (E) 06:35:57 145.90 MHz
AO-7 25 Jul 06:53:26 07:01:15 47° 295° (WNW) 07:09:02 29.400 - 29.500 MHz
Oscar 10/S400 25 Jul 06:54:48 08:18:33 35° 250° (WSW) 12:19:33 145.825 - 145.975 CW/USB, Beacon 145.810 USB
ISS 25 Jul 07:03:55 07:04:24 10° 23° (NNE) 07:04:53 145.800 FM
JAS-2 25 Jul 07:13:33 07:19:09 40° 97° (E) 07:24:13 435.800 - 435.900 CW/SSB, 435.910 FM
Lituanica SAT-1 25 Jul 07:18:04 07:20:09 80° 42° (NE) 07:22:13 437.275 MHz beacon
PANSAT 25 Jul 07:29:10 07:32:12 22° 167° (SSE) 07:35:14 not established
MaSat-1 25 Jul 07:55:29 08:00:11 31° 59° (ENE) 08:04:41 437.345 MHz
STRAND 1 25 Jul 07:57:53 08:02:49 46° 260° (W) 08:07:46 ?
Hamsat 25 Jul 08:05:15 08:09:05 33° 288° (WNW) 08:12:56 145.90 MHz
KITSAT 1 25 Jul 08:09:43 08:17:44 66° 300° (WNW) 08:25:49 435.175 FM
SO-67 25 Jul 08:18:02 08:21:24 46° 99° (E) 08:24:44 435.3500 MHz FM
ISS 25 Jul 08:38:23 08:41:43 59° 41° (NE) 08:45:01 145.800 FM
Saudisat 1A 25 Jul 08:54:09 08:58:28 57° 116° (ESE) 09:02:49 436.775 MHz
JAS-2 25 Jul 08:59:13 09:03:53 24° 296° (WNW) 09:08:12 435.800 - 435.900 CW/SSB, 435.910 FM
PANSAT 25 Jul 09:08:32 09:11:58 31° 180° (S) 09:15:23 not established
MaSat-1 25 Jul 09:32:54 09:37:28 30° 256° (WSW) 09:41:47 437.345 MHz
UKube-1 25 Jul 10:01:14 10:04:47 24° 97° (E) 10:08:18 145.840 MHz, 145.915 MHz
KITSAT 1 25 Jul 10:10:27 10:14:47 15° 322° (NW) 10:19:08 435.175 FM
HO-68 25 Jul 10:17:03 10:24:05 58° 102° (ESE) 10:31:04 435.675 MHz FM
ISS 25 Jul 10:17:14 10:18:01 11° 234° (SW) 10:18:49 145.800 FM
PCSat 25 Jul 10:27:13 10:30:32 16° 49° (NE) 10:33:49 145.825 MHz
Saudisat 1A 25 Jul 10:35:54 10:38:24 15° 312° (NW) 10:40:55 436.775 MHz
PANSAT 25 Jul 10:48:41 10:51:44 22° 193° (SSW) 10:54:47 not established
Oscar 11 25 Jul 10:50:28 10:54:38 45° 99° (E) 10:58:47 145.825 FM, Beacon 2401.500 USB
FUNcube-1 25 Jul 11:01:05 11:04:06 19° 95° (E) 11:07:07 145.950 - 145.970 MHz USB
Sapphire 25 Jul 11:35:13 11:40:33 55° 61° (ENE) 11:45:50 437.095 MHz 1200 baud AX-25 AFSK
UKube-1 25 Jul 11:37:21 11:40:52 24° 291° (WNW) 11:44:23 145.840 MHz, 145.915 MHz
HO-68 25 Jul 12:05:48 12:11:15 24° 298° (WNW) 12:16:41 435.675 MHz FM
PCSat 25 Jul 12:09:03 12:14:27 69° 247° (WSW) 12:19:49 145.825 MHz
Oscar 11 25 Jul 12:28:16 12:30:24 14° 293° (WNW) 12:32:32 145.825 FM, Beacon 2401.500 USB
FUNcube-1 25 Jul 12:36:57 12:40:28 27° 289° (WNW) 12:44:01 145.950 - 145.970 MHz USB
SO-50 25 Jul 12:46:58 12:48:40 12° 107° (ESE) 12:50:22 436.795 FM
Oscar 19 25 Jul 12:56:31 12:58:45 13° 63° (ENE) 13:00:59 437.125 CW, 437.150 USB
RS-15 25 Jul 13:11:18 13:19:58 27° 104° (ESE) 13:28:26 29.354 - 29.394 USB, Beacon 29.352 USB
Sapphire 25 Jul 13:20:07 13:23:27 17° 256° (WSW) 13:26:46 437.095 MHz 1200 baud AX-25 AFSK
Oscar 16 25 Jul 13:22:01 13:26:07 25° 68° (ENE) 13:30:15 437.025 USB, Beacon 2401.1428
ITAMSAT 1 25 Jul 13:35:56 13:38:48 15° 64° (ENE) 13:41:41 435.822 SSB
AO-Echo 25 Jul 13:43:00 13:46:32 19° 66° (ENE) 13:50:06 ?
AO-27 25 Jul 13:52:46 13:56:45 23° 67° (ENE) 14:00:45 436.795 MHz FM
Uribyol 2 25 Jul 13:54:57 13:59:06 25° 68° (ENE) 14:03:15 436.500 FM
SO-50 25 Jul 14:24:18 14:28:40 55° 302° (WNW) 14:33:08 436.795 FM
Oscar 19 25 Jul 14:32:25 14:37:29 67° 258° (WSW) 14:42:35 437.125 CW, 437.150 USB
JAS-1B 25 Jul 14:41:14 14:49:16 48° 67° (ENE) 14:58:20 435.800 - 435.900 CW/SSB
Oscar 16 25 Jul 15:00:44 15:05:17 32° 263° (W) 15:09:52 437.025 USB, Beacon 2401.1428
UOSAT-12 25 Jul 15:07:42 15:11:28 26° 111° (ESE) 15:15:18 437.025 FM, 437.400 FM
TMSAT-1 25 Jul 15:09:39 15:14:24 35° 70° (ENE) 15:19:10 436.925 FM
ITAMSAT 1 25 Jul 15:12:37 15:17:45 59° 259° (W) 15:22:55 435.822 SSB
AO-Echo 25 Jul 15:19:46 15:24:50 50° 261° (W) 15:30:01 ?
RS-15 25 Jul 15:20:07 15:31:17 71° 301° (WNW) 15:42:14 29.354 - 29.394 USB, Beacon 29.352 USB
Gurwin Techsat 1B 25 Jul 15:30:49 15:36:07 80° 76° (ENE) 15:41:26 435.225 FM
AO-27 25 Jul 15:31:10 15:36:00 38° 261° (W) 15:40:51 436.795 MHz FM
Uribyol 2 25 Jul 15:33:39 15:38:21 34° 262° (W) 15:43:04 436.500 FM
Uosat F 25 Jul 15:37:48 15:40:15 14° 64° (ENE) 15:42:43 435.120 FM
AO-7 25 Jul 15:56:31 16:03:54 36° 63° (ENE) 16:11:16 29.400 - 29.500 MHz
KITSAT 1 25 Jul 16:06:56 16:14:15 36° 52° (NE) 16:21:29 435.175 FM
OPAL 25 Jul 16:18:03 16:20:31 14° 95° (E) 16:23:00 ?
JAS-1B 25 Jul 16:32:10 16:39:46 38° 266° (W) 16:48:27 435.800 - 435.900 CW/SSB
UOSAT-12 25 Jul 16:47:27 16:51:29 30° 307° (NW) 16:55:36 437.025 FM, 437.400 FM
TMSAT-1 25 Jul 16:50:04 16:54:20 25° 265° (W) 16:58:37 436.925 FM
Uosat F 25 Jul 17:13:29 17:18:28 62° 258° (WSW) 17:23:29 435.120 FM
JAS-2 25 Jul 17:22:24 17:27:09 18° 61° (ENE) 17:31:47 435.800 - 435.900 CW/SSB, 435.910 FM
Oscar 10/S400 25 Jul 17:23:57 17:34:43 14° 152° (SSE) 17:43:26 145.825 - 145.975 CW/USB, Beacon 145.810 USB
Saudisat 1A 25 Jul 17:24:47 17:27:58 19° 50° (NE) 17:31:08 436.775 MHz
RS-15 25 Jul 17:38:21 17:45:58 21° 327° (NNW) 17:53:35 29.354 - 29.394 USB, Beacon 29.352 USB
AO-7 25 Jul 17:48:30 17:56:24 46° 259° (W) 18:04:22 29.400 - 29.500 MHz
OPAL 25 Jul 17:54:43 17:59:41 59° 288° (WNW) 18:04:42 ?
KITSAT 1 25 Jul 18:02:07 18:09:45 48° 250° (WSW) 18:17:21 435.175 FM
